TimeEST,TemperatureF,Dew PointF,Humidity,Sea Level PressureIn,VisibilityMPH,Wind Direction,Wind SpeedMPH,Gust SpeedMPH,PrecipitationIn,Events,Conditions,WindDirDegrees,DateUTC
12:53 AM,48.9,46.9,93,30.21,9.0,Calm,Calm,-,N/A,,Scattered Clouds,0,2013-01-01 05:53:00
1:53 AM,48.0,46.9,96,30.20,6.0,Calm,Calm,-,N/A,,Overcast,0,2013-01-01 06:53:00
2:24 AM,46.4,44.6,93,30.19,1.8,Calm,Calm,-,N/A,,Overcast,0,2013-01-01 07:24:00
2:37 AM,46.4,46.4,100,30.18,0.5,Calm,Calm,-,N/A,Fog,Fog,0,2013-01-01 07:37:00
2:53 AM,46.9,46.0,97,30.18,1.0,Calm,Calm,-,N/A,,Overcast,0,2013-01-01 07:53:00
3:15 AM,44.6,44.6,100,30.18,3.0,Calm,Calm,-,N/A,,Overcast,0,2013-01-01 08:15:00
3:24 AM,46.4,44.6,93,30.17,3.0,Calm,Calm,-,N/A,,Overcast,0,2013-01-01 08:24:00
3:53 AM,46.0,45.0,96,30.17,7.0,Calm,Calm,-,N/A,,Overcast,0,2013-01-01 08:53:00
4:53 AM,48.9,46.9,93,30.17,9.0,Calm,Calm,-,N/A,,Overcast,0,2013-01-01 09:53:00
5:53 AM,51.1,48.9,92,30.17,10.0,Calm,Calm,-,N/A,,Overcast,0,2013-01-01 10:53:00
6:53 AM,52.0,50.0,93,30.16,8.0,Calm,Calm,-,N/A,,Overcast,0,2013-01-01 11:53:00
7:53 AM,54.0,52.0,93,30.17,7.0,South,3.5,-,N/A,,Overcast,170,2013-01-01 12:53:00
8:53 AM,60.1,55.0,83,30.17,10.0,SSW,4.6,-,N/A,,Overcast,210,2013-01-01 13:53:00
9:53 AM,66.0,55.0,68,30.17,10.0,SSW,6.9,-,N/A,,Scattered Clouds,200,2013-01-01 14:53:00
10:53 AM,70.0,54.0,57,30.16,10.0,SSW,11.5,18.4,N/A,,Clear,200,2013-01-01 15:53:00
11:53 AM,72.0,54.0,53,30.14,10.0,SSW,15.0,20.7,N/A,,Partly Cloudy,210,2013-01-01 16:53:00
12:53 PM,75.0,54.0,48,30.11,10.0,WSW,15.0,19.6,N/A,,Overcast,240,2013-01-01 17:53:00
2:53 PM,73.9,54.0,50,30.07,10.0,West,15.0,20.7,N/A,,Overcast,260,2013-01-01 19:53:00
3:53 PM,73.0,54.0,51,30.07,10.0,WSW,15.0,-,N/A,,Overcast,250,2013-01-01 20:53:00
4:53 PM,71.1,54.0,55,30.07,10.0,WSW,9.2,-,N/A,,Overcast,240,2013-01-01 21:53:00
6:53 PM,64.9,55.0,70,30.06,10.0,SW,4.6,-,N/A,,Mostly Cloudy,230,2013-01-01 23:53:00
7:53 PM,64.0,55.0,73,30.06,10.0,SSW,4.6,-,N/A,,Clear,210,2013-01-02 00:53:00
8:53 PM,60.1,55.0,83,30.06,10.0,SSW,4.6,-,N/A,,Clear,210,2013-01-02 01:53:00
9:53 PM,62.1,55.0,78,30.06,10.0,SW,4.6,-,N/A,,Clear,220,2013-01-02 02:53:00
10:53 PM,61.0,55.0,81,30.06,10.0,SW,4.6,-,N/A,,Clear,220,2013-01-02 03:53:00
11:53 PM,60.1,55.0,83,30.04,10.0,SSW,4.6,-,N/A,,Clear,210,2013-01-02 04:53:00